Weather in Ustyutskoye

Russia / Novgorod Oblast     58°30′14″N   35°19′41″E
temp.,
°C
wind,
m/s
gust,
m/s
humid.,
%
clouds,
%
prec.,
mm/h
press.,
hPa
HPBL,
m
7 march, sun
sun700:00−6ssw61392100 0.4 10011000
03:00−5ssw61393100 1.7 9951027
06:00−3sw51195100 2.3 989894
09:00−2w71292100 5.3 9871123
12:00−5w61163100 0.6 9882092
15:00−5w5106280 0.9 9891903
18:00−8w398170 0.3 989417
21:00−8wsw4109085 0.5 989716
8 march, mon
mon800:00−8sw1596100 0.9 990262
03:00−11n379798 1.3 993174
06:00−12nnw4109594 0.1 996427
09:00−11n5109197 0.3 1000703
12:00−10n5885100 0.1 1004754
15:00−10nnw5785100 0.3 1007765
18:00−11n4886100 0.1 1009741
21:00−15n3996100 0.2 1013346
9 march, tue
tue900:00−19nnw269863 0.0 1014145
03:00−22nnw239838 0.0 101670
06:00−24nnw239820 0.0 101865
09:00−22n249511 0.0 1020198
12:00−17n238269 0.0 1020466
15:00−15n248175 0.0 1021593
18:00−18nne229256 0.0 102224
21:00−22ene229728 0.0 102521
10 march, wed
wed1000:00−24ene22960 0.0 102622
03:00−25e12950 0.0 102720
06:00−26ne00920 0.0 102819
09:00−21n12860 0.0 1029104
12:00−15n23730 0.0 1029405
15:00−11n23710 0.0 1029508
18:00−14nnw11871 0.0 102820
21:00−17nw129032 0.0 102920
11 march, thu
thu1100:00−18nnw129567 0.0 103020
03:00−20n119837 0.0 103120
06:00−20wsw119914 0.0 103120
09:00−16s11936 0.0 103176
12:00−10s238348 0.0 1029420
15:00−8s358172 0.0 1028745
18:00−11sse388763 0.0 1026314
21:00−14s4128732 0.0 1025416